Regional Weather Roundup
Issued by NWS

Home | Current Version | Previous Version | Graphics & Text | Print | Product List | Glossary On
Versions: 1 2 3 4 5 6 7 8 9 10 11 12 13 14 15 16 17 18 19 20 21 22 23 24 25 26 27 28 29 30 31 32 33 34 35 36 37 38 39 40 41 42 43 44 45 46 47 48 49 50
000
ASUS43 KLOT 271612
RWRIL

ILLINOIS REGIONAL WEATHER ROUNDUP
NATIONAL WEATHER SERVICE CHICAGO/ROMEOVILLE IL
1100 AM CDT MON APR 27 2015

NOTE: "FAIR" INDICATES FEW OR NO CLOUDS BELOW 12,000 FEET WITH NO
SIGNIFICANT WEATHER AND/OR OBSTRUCTIONS TO VISIBILITY.

* THESE STATIONS ARE NOT UNDER NWS QUALITY CONTROL. THEY ALSO MAY NOT
  REPORT WEATHER SUCH AS PRECIPITATION OR FOG.

ILZ001-002-007-009-015-016-024-271700-
NORTHWEST ILLINOIS

CITY           SKY/WX    TMP DP  RH WIND       PRES   REMARKS
MOLINE         SUNNY     56  34  43 VRB3      30.17S
STERLING*      SUNNY     55  37  50 N13       30.16F
SAVANNA*       SUNNY     56  31  38 N10       30.17F
$$

ILZ003-004-008-010-011-017-018-271700-
NORTH CENTRAL ILLINOIS

CITY           SKY/WX    TMP DP  RH WIND       PRES   REMARKS
ROCKFORD       SUNNY     56  33  42 N14       30.17F
FREEPORT*      SUNNY     54  32  43 NW13      30.17F
ROCHELLE*      SUNNY     53  36  53 N15       30.15F
DE KALB*       SUNNY     51  35  54 N13G18    30.14F
PERU*          SUNNY     55  36  49 NE9G18    30.15F
$$

ILZ005-006-012>014-019>023-271700-
NORTHEAST ILLINOIS

CITY           SKY/WX    TMP DP  RH WIND       PRES   REMARKS
CHICAGO-OHARE  PTSUNNY   51  32  48 N14       30.12F
CHICAGO-MIDWAY MOSUNNY   54  34  46 N20G26    30.12F
AURORA         SUNNY     54  36  50 N12       30.14S
LANSING*       SUNNY     48  33  56 N17       30.13R
JOLIET*        MOSUNNY   55  36  48 N12G21    30.13S
WAUKEGAN       MOSUNNY   50  35  56 NE12      30.13S
DUPAGE AIRPORT PTSUNNY   52  34  50 N12       30.12F
KANKAKEE*      PTSUNNY   52  36  54 N10G22    30.12S
WHEELING       CLOUDY    51  33  50 NE13      30.15S
MORRIS*        SUNNY     53  35  50 N9        30.12R
ROMEOVILLE*    PTSUNNY   52  32  47 N12G21    30.12S
NORTHERLY ISL    N/A     47  35  63 N17         N/A
$$

LMZ740>746-271700-
SOUTHERN LAKE MICHIGAN

STATION/POSITION SKY/WX   TEMP    WIND        PRES    VSBY  WAVE
                          AIR SEA DIR/SP/G                  HT/PER
                          (F)     (DEG/KT/KT) (MB)    (MI)  (FT/S)
HARRISON CRIB              43     340/ 19/ 22   N/A
BURNHAM HARBOR             47     340/ 16/ 20   N/A
CALUMET HARBOR             46     330/ 15/ 19   N/A
BURNS HARBOR               42     340/ 17/ 20 1020.0S
MICHIGAN CITY              41     320/ 21/ 23   N/A
MICHIGAN CITY 6N           41 45  340/ 17/ 21   N/A           4/ 5
$$

ILZ025>027-034>036-040-047-049-050-058-095>099-271700-
WEST-CENTRAL ILLINOIS

CITY           SKY/WX    TMP DP  RH WIND       PRES   REMARKS
QUINCY         MOSUNNY   58  37  45 N3        30.16R
GALESBURG*     SUNNY     55  37  49 N14G20    30.15F
MACOMB*        SUNNY     57  37  47 NE13      30.18R
JACKSONVILLE*  MOSUNNY   59  35  40 N6        30.15R
PITTSFIELD*    PTSUNNY   58  39  50 CALM      30.17R
$$

ILZ028>032-037-038-041>044-048-051>054-059>061-271700-
CENTRAL ILLINOIS

CITY           SKY/WX    TMP DP  RH WIND       PRES   REMARKS
PONTIAC        SUNNY     56  39  53 N18       30.13F
BLOOMINGTON    SUNNY     54  36  50 N18G25    30.13S
DECATUR        SUNNY     56  39  53 N14G24    30.12R
PEORIA         SUNNY     57  34  41 N9G18     30.14S
LACON*         SUNNY     54  35  48 N8        30.15S
LINCOLN*       SUNNY     56  38  51 NE14      30.12S
SPRINGFIELD    MOSUNNY   59  40  49 N10       30.14R
TAYLORVILLE    MOSUNNY   55  36  47 N13       30.13R
$$

ILZ033-039-045-046-055>057-062-063-271700-
EAST-CENTRAL ILLINOIS

CITY           SKY/WX    TMP DP  RH WIND       PRES   REMARKS
CHAMPAIGN      SUNNY     55  38  52 N20G28    30.09S
DANVILLE*      SUNNY     53  38  57 N16G25    30.05F
RANTOUL*       SUNNY     55  38  52 N17       30.09F
MATTOON        SUNNY     54  37  52 N15       30.09R
PARIS*         SUNNY     54  40  59 N14G21    30.09R
$$

ILZ079-100>102-271700-
SOUTHWEST ILLINOIS

CITY           SKY/WX    TMP DP  RH WIND       PRES   REMARKS
ALTON          CLOUDY    55  28  35 N7        30.15
BELLEVILLE     PTSUNNY   57  36  44 N9        30.13S
CAHOKIA*       PTSUNNY   58  34  40 VRB5      30.15S
SPARTA*        CLOUDY    53  37  54 NW7       30.14F
$$

ILZ064>066-069>071-074>076-080>082-084>086-088>090-092>094-271700-
SOUTH-CENTRAL ILLINOIS

CITY           SKY/WX    TMP DP  RH WIND       PRES   REMARKS
CARBONDALE     PTSUNNY   56  36  47 N8        30.11F
CAIRO*         PTSUNNY   56  35  44 N10       30.08F
EFFINGHAM*     MOSUNNY   56  34  43 N9G16     30.13R
MARION         PTSUNNY   55  36  47 N12       30.11F
MT. VERNON     PTSUNNY   57  36  44 N8        30.12S
CENTRALIA*     PTSUNNY   61  33  35 N13G18    30.11F
SALEM*         PTSUNNY   60  35  38 N10       30.11S
METROPOLIS*    PTSUNNY   57  35  44 NE7       30.08F
$$

ILZ067-068-072-073-078-083-087-091-271700-
SOUTHEAST ILLINOIS

CITY           SKY/WX    TMP DP  RH WIND       PRES   REMARKS
LAWRENCEVILLE  MOSUNNY   57  36  45 N13       30.09R
FLORA*         MOSUNNY   55  37  50 N12       30.10S
FAIRFIELD*     PTSUNNY   56  36  47 N6        30.10S
HARRISBURG*    PTSUNNY   55  36  49 N6        30.12S
ROBINSON*      SUNNY     55  36  48 N12       30.10R
CARMI*         PTSUNNY   56  31  38 NW3       30.10R
$$

ABBREVIATIONS USED IN REMARKS
   TC - TEMPERATURE IN CELSIUS
  WCI - WIND CHILL INDEX
   HX - HEAT INDEX
  VSB - VISIBILITY
$$




USA.gov is the U.S. government's official web portal to all federal, state and local government web resources and services.